Location: Eldred Sherwood Park Lake Dam
(42.9416°N, 93.5655°W)
Time: 08:54:08
(UTC+00:00)

Vanguard 2 Rocket - Pass Details

Date: 13 November 2024
Orbit: 554 x 3296 km, 32.9° (Epoch: 06 December)

Event Time Altitude Azimuth Distance (km) Brightness Sun altitude
Rises 11:18:16 0° 198° (SSW) 5,198 10.7 -19.5°
Reaches altitude 10° 11:22:07 10° 186° (S) 4,603 10.5 -18.8°
Maximum altitude 11:32:37 26° 136° (SE) 4,286 10.9 -16.9°
Drops below altitude 10° 11:46:20 10° 90° (E) 6,153 12.4 -14.5°
Sets 11:52:35 0° 80° (E) 7,277 12.9 -13.3°
